BPX272 KRYY-KGAD

Flight info

Callsign BPX272
Flight time 0h 44m
Altitude 4500
Route KRYY KGAD
Aircraft C172/L-V/N

Departure

Time 2026-05-04 16:28
Airport Cobb County International Airport-McCollum Field (KRYY)

Arrival

Time 2026-05-04 17:13
Airport Northeast Alabama Regional Airport (KGAD)
Time Latitude Longitude Altitude Speed Heading
2026-05-04 16:16 34.01154 -84.60274 1031 ft 0 kts 359°
2026-05-04 16:21 34.01176 -84.60267 1031 ft 9 kts 51°
2026-05-04 16:22 34.01218 -84.60131 1029 ft 12 kts 63°
2026-05-04 16:22 34.01235 -84.59696 1016 ft 23 kts 90°
2026-05-04 16:23 34.01243 -84.59165 1009 ft 18 kts 92°
2026-05-04 16:24 34.01246 -84.58687 1006 ft 0 kts 54°
2026-05-04 16:26 34.01301 -84.58671 1007 ft 12 kts 354°
2026-05-04 16:27 34.01326 -84.59176 1016 ft 67 kts 270°
2026-05-04 16:28 34.01284 -84.60896 1534 ft 72 kts 263°
2026-05-04 16:28 34.01222 -84.62789 2082 ft 87 kts 266°
2026-05-04 16:29 34.01137 -84.65618 3048 ft 87 kts 270°
2026-05-04 16:30 34.01124 -84.67790 3321 ft 87 kts 268°
2026-05-04 16:31 34.01031 -84.69285 3264 ft 88 kts 267°
2026-05-04 16:31 34.00891 -84.71451 4214 ft 80 kts 270°
2026-05-04 16:32 34.00883 -84.73526 4497 ft 87 kts 271°
2026-05-04 16:33 34.00837 -84.75088 4510 ft 106 kts 269°
2026-05-04 16:33 34.00796 -84.76869 4491 ft 100 kts 270°
2026-05-04 16:34 34.00739 -84.78535 4549 ft 97 kts 269°
2026-05-04 16:34 34.00706 -84.79416 4516 ft 107 kts 266°
2026-05-04 16:35 34.00590 -84.81987 4485 ft 99 kts 270°
2026-05-04 16:35 34.00503 -84.84520 4475 ft 107 kts 270°
2026-05-04 16:36 34.00485 -84.85393 4482 ft 102 kts 270°
2026-05-04 16:36 34.00446 -84.87050 4475 ft 96 kts 269°
2026-05-04 16:37 34.00399 -84.88648 4491 ft 98 kts 271°
2026-05-04 16:37 34.00386 -84.89467 4485 ft 97 kts 270°
2026-05-04 16:37 34.00346 -84.91091 4481 ft 95 kts 270°
2026-05-04 16:38 34.00284 -84.92658 4480 ft 94 kts 269°
2026-05-04 16:39 34.00151 -84.94984 4496 ft 94 kts 267°
2026-05-04 16:39 34.00040 -84.96576 4497 ft 96 kts 268°
2026-05-04 16:40 33.99922 -84.98194 4495 ft 97 kts 267°
2026-05-04 16:40 33.99798 -84.99821 4496 ft 98 kts 267°
2026-05-04 16:41 33.99669 -85.01440 4490 ft 97 kts 266°
2026-05-04 16:41 33.99469 -85.03829 4485 ft 95 kts 267°
2026-05-04 16:42 33.99236 -85.06214 4487 ft 94 kts 266°
2026-05-04 16:43 33.99076 -85.07777 4479 ft 93 kts 265°
2026-05-04 16:43 33.98880 -85.09307 4499 ft 92 kts 265°
2026-05-04 16:43 33.98780 -85.10095 4488 ft 96 kts 263°
2026-05-04 16:44 33.98539 -85.13479 4559 ft 117 kts 272°
2026-05-04 16:45 33.98565 -85.15472 4509 ft 113 kts 271°
2026-05-04 16:46 33.98568 -85.18170 4472 ft 112 kts 272°
2026-05-04 16:46 33.98563 -85.19940 4466 ft 100 kts 271°
2026-05-04 16:47 33.98565 -85.21580 4467 ft 96 kts 272°
2026-05-04 16:47 33.98567 -85.23401 4474 ft 111 kts 272°
2026-05-04 16:48 33.98562 -85.26054 4467 ft 102 kts 269°
2026-05-04 16:48 33.98558 -85.26925 4466 ft 103 kts 272°
2026-05-04 16:49 33.98566 -85.28680 4465 ft 102 kts 272°
2026-05-04 16:49 33.98567 -85.30375 4519 ft 104 kts 272°
2026-05-04 16:50 33.98556 -85.32386 4433 ft 127 kts 271°
2026-05-04 16:50 33.98568 -85.34236 4453 ft 102 kts 272°
2026-05-04 16:51 33.98568 -85.35828 4454 ft 91 kts 272°
2026-05-04 16:51 33.98572 -85.36327 4455 ft 89 kts 272°
2026-05-04 16:51 33.98575 -85.37849 4470 ft 94 kts 271°
2026-05-04 16:52 33.98576 -85.39386 4462 ft 91 kts 272°
2026-05-04 16:52 33.98575 -85.40151 4461 ft 91 kts 272°
2026-05-04 16:53 33.98579 -85.41730 4451 ft 106 kts 272°
2026-05-04 16:53 33.98569 -85.44210 4460 ft 96 kts 271°
2026-05-04 16:54 33.98566 -85.45018 4462 ft 97 kts 272°
2026-05-04 16:55 33.98556 -85.48394 4484 ft 103 kts 271°
2026-05-04 16:55 33.98559 -85.50168 4460 ft 102 kts 272°
2026-05-04 16:56 33.98558 -85.51862 4456 ft 99 kts 272°
2026-05-04 16:56 33.98569 -85.54488 4479 ft 113 kts 272°
2026-05-04 16:57 33.98586 -85.55448 4461 ft 111 kts 276°
2026-05-04 16:57 33.98595 -85.57359 4455 ft 108 kts 272°
2026-05-04 16:58 33.98564 -85.59958 4475 ft 100 kts 270°
2026-05-04 16:58 33.98526 -85.60823 4436 ft 110 kts 270°
2026-05-04 16:59 33.98441 -85.62628 4483 ft 112 kts 270°
2026-05-04 17:00 33.98289 -85.66076 4470 ft 102 kts 269°
2026-05-04 17:00 33.98170 -85.68585 4460 ft 99 kts 269°
2026-05-04 17:01 33.98086 -85.70222 4461 ft 96 kts 269°
2026-05-04 17:01 33.98011 -85.71956 4461 ft 107 kts 269°
2026-05-04 17:02 33.97934 -85.73690 4457 ft 101 kts 270°
2026-05-04 17:02 33.97867 -85.75344 4460 ft 97 kts 270°
2026-05-04 17:03 33.97826 -85.76146 4457 ft 96 kts 269°
2026-05-04 17:03 33.97788 -85.76954 4464 ft 96 kts 268°
2026-05-04 17:03 33.97707 -85.78615 4468 ft 102 kts 270°
2026-05-04 17:04 33.97622 -85.80354 4468 ft 104 kts 270°
2026-05-04 17:04 33.97548 -85.82045 4466 ft 100 kts 269°
2026-05-04 17:05 33.97472 -85.83669 4461 ft 96 kts 270°
2026-05-04 17:05 33.97391 -85.85431 4464 ft 106 kts 269°
2026-05-04 17:06 33.97311 -85.87305 4461 ft 108 kts 269°
2026-05-04 17:06 33.97268 -85.88181 4462 ft 104 kts 270°
2026-05-04 17:07 33.97182 -85.89938 4375 ft 112 kts 271°
2026-05-04 17:07 33.97158 -85.90576 4294 ft 113 kts 269°
2026-05-04 17:07 33.97107 -85.91853 4135 ft 115 kts 270°
2026-05-04 17:07 33.97075 -85.92775 3987 ft 106 kts 268°
2026-05-04 17:08 33.97045 -85.93697 3869 ft 113 kts 270°
2026-05-04 17:08 33.96989 -85.95499 3565 ft 102 kts 270°
2026-05-04 17:08 33.96970 -85.96318 3430 ft 95 kts 270°
2026-05-04 17:09 33.97015 -85.97183 3077 ft 108 kts 279°
2026-05-04 17:09 33.97233 -85.98052 2950 ft 107 kts 292°
2026-05-04 17:09 33.97516 -85.98857 2770 ft 99 kts 295°
2026-05-04 17:10 33.98039 -86.00386 2237 ft 99 kts 293°
2026-05-04 17:10 33.98917 -86.02803 1965 ft 106 kts 284°
2026-05-04 17:11 33.99032 -86.03635 1787 ft 101 kts 275°
2026-05-04 17:11 33.99005 -86.04481 1531 ft 103 kts 260°
2026-05-04 17:11 33.98551 -86.05870 1327 ft 76 kts 245°
2026-05-04 17:12 33.98316 -86.06380 1231 ft 65 kts 246°
2026-05-04 17:12 33.97879 -86.07323 913 ft 68 kts 240°
2026-05-04 17:13 33.97256 -86.08671 550 ft 42 kts 242°
2026-05-04 17:14 33.97001 -86.09220 559 ft 17 kts 239°
2026-05-04 17:14 33.96925 -86.09380 558 ft 24 kts 242°
2026-05-04 17:14 33.96805 -86.09377 559 ft 12 kts 107°
2026-05-04 17:15 33.96797 -86.09269 559 ft 13 kts 79°
2026-05-04 17:15 33.96852 -86.08998 558 ft 21 kts 78°
2026-05-04 17:16 33.96917 -86.08681 552 ft 17 kts 75°
2026-05-04 17:16 33.97160 -86.08411 550 ft 16 kts 358°
2026-05-04 17:17 33.97235 -86.08346 549 ft 13 kts 75°
2026-05-04 17:17 33.97253 -86.08236 559 ft 0 kts